Time,TemperatureF,DewpointF,PressureIn,WindDirection,WindDirectionDegrees,WindSpeedMPH,WindSpeedGustMPH,Humidity,HourlyPrecipIn,Conditions,Clouds,dailyrainin,SoftwareType,DateUTC
2013-04-05 00:02:00,45.0,29.0,30.11,SSW,202,3.0,4.0,55,-99.99,,,-99.99,,2013-04-05 05:02:00,
2013-04-05 00:12:00,45.0,29.0,30.11,South,180,3.0,4.0,55,-99.99,,,-99.99,,2013-04-05 05:12:00,
2013-04-05 00:22:00,44.0,29.0,30.11,SW,225,4.0,6.0,57,-99.99,,,-99.99,,2013-04-05 05:22:00,
2013-04-05 00:32:00,43.0,30.0,30.11,SW,225,4.0,5.0,61,-99.99,,,-99.99,,2013-04-05 05:32:00,
2013-04-05 00:42:00,43.0,30.0,30.11,SW,225,4.0,6.0,61,-99.99,,,-99.99,,2013-04-05 05:42:00,
2013-04-05 00:52:00,43.0,30.0,30.11,SW,225,4.0,5.0,61,-99.99,,,-99.99,,2013-04-05 05:52:00,
2013-04-05 01:02:00,42.0,31.0,30.11,SW,225,3.0,4.0,65,-99.99,,,-99.99,,2013-04-05 06:02:00,
2013-04-05 01:12:00,41.0,31.0,30.11,SW,225,5.0,6.0,67,-99.99,,,-99.99,,2013-04-05 06:12:00,
2013-04-05 01:22:00,41.0,31.0,30.11,SW,225,4.0,6.0,68,-99.99,,,-99.99,,2013-04-05 06:22:00,
2013-04-05 01:32:00,43.0,31.0,30.11,SW,225,6.0,7.0,63,-99.99,,,-99.99,,2013-04-05 06:32:00,
2013-04-05 01:42:00,42.0,31.0,30.11,SW,225,4.0,6.0,65,-99.99,,,-99.99,,2013-04-05 06:42:00,
2013-04-05 01:52:00,42.0,31.0,30.11,SSW,202,5.0,6.0,66,-99.99,,,-99.99,,2013-04-05 06:52:00,
2013-04-05 02:02:00,41.0,31.0,30.11,SSW,202,4.0,6.0,66,-99.99,,,-99.99,,2013-04-05 07:02:00,
2013-04-05 02:12:00,41.0,31.0,30.11,SW,225,4.0,5.0,66,-99.99,,,-99.99,,2013-04-05 07:12:00,
2013-04-05 02:22:00,41.0,31.0,30.11,SW,225,4.0,5.0,68,-99.99,,,-99.99,,2013-04-05 07:22:00,
2013-04-05 02:32:00,41.0,31.0,30.11,SSW,202,4.0,5.0,68,-99.99,,,-99.99,,2013-04-05 07:32:00,
2013-04-05 02:42:00,41.0,31.0,30.10,SW,225,4.0,6.0,68,-99.99,,,-99.99,,2013-04-05 07:42:00,
2013-04-05 02:52:00,40.0,31.0,30.11,SSW,202,4.0,6.0,69,-99.99,,,-99.99,,2013-04-05 07:52:00,
2013-04-05 03:02:00,41.0,31.0,30.11,SW,225,4.0,6.0,69,-99.99,,,-99.99,,2013-04-05 08:02:00,
2013-04-05 03:12:00,41.0,31.0,30.11,SW,225,5.0,6.0,68,-99.99,,,-99.99,,2013-04-05 08:12:00,
2013-04-05 03:22:00,40.0,31.0,30.11,SW,225,4.0,4.0,71,-99.99,,,-99.99,,2013-04-05 08:22:00,
2013-04-05 03:32:00,40.0,31.0,30.11,SW,225,4.0,5.0,72,-99.99,,,-99.99,,2013-04-05 08:32:00,
2013-04-05 03:42:00,39.0,31.0,30.11,SW,225,4.0,6.0,73,-99.99,,,-99.99,,2013-04-05 08:42:00,
2013-04-05 03:52:00,40.0,31.0,30.12,SW,225,5.0,6.0,70,-99.99,,,-99.99,,2013-04-05 08:52:00,
2013-04-05 04:02:00,40.0,31.0,30.11,SW,225,4.0,5.0,72,-99.99,,,-99.99,,2013-04-05 09:02:00,
2013-04-05 04:12:00,39.0,31.0,30.11,SW,225,4.0,6.0,73,-99.99,,,-99.99,,2013-04-05 09:12:00,
2013-04-05 04:22:00,40.0,31.0,30.12,SW,225,5.0,6.0,71,-99.99,,,-99.99,,2013-04-05 09:22:00,
2013-04-05 04:33:00,39.0,31.0,30.12,SW,225,4.0,5.0,73,-99.99,,,-99.99,,2013-04-05 09:33:00,
2013-04-05 04:42:00,38.0,31.0,30.13,West,270,4.0,4.0,76,-99.99,,,-99.99,,2013-04-05 09:42:00,
2013-04-05 04:52:00,38.0,32.0,30.13,NNW,337,3.0,8.0,77,-99.99,,,-99.99,,2013-04-05 09:52:00,
2013-04-05 05:03:00,39.0,31.0,30.13,NE,45,2.0,6.0,72,-99.99,,,-99.99,,2013-04-05 10:03:00,
2013-04-05 05:12:00,38.0,31.0,30.14,East,90,0.0,-999.0,74,-99.99,,,-99.99,,2013-04-05 10:12:00,
2013-04-05 05:23:00,38.0,30.0,30.14,NNE,22,1.0,2.0,72,-99.99,,,-99.99,,2013-04-05 10:23:00,
2013-04-05 05:32:00,39.0,30.0,30.14,NNE,22,0.0,-999.0,72,-99.99,,,-99.99,,2013-04-05 10:32:00,
2013-04-05 05:42:00,38.0,31.0,30.13,SSE,157,1.0,2.0,78,-99.99,,,-99.99,,2013-04-05 10:42:00,
2013-04-05 05:52:00,37.0,31.0,30.13,SSE,157,2.0,3.0,77,-99.99,,,-99.99,,2013-04-05 10:52:00,
2013-04-05 06:02:00,37.0,31.0,30.13,SSE,157,3.0,3.0,77,-99.99,,,-99.99,,2013-04-05 11:02:00,
2013-04-05 06:12:00,36.0,30.0,30.13,South,180,0.0,-999.0,78,-99.99,,,-99.99,,2013-04-05 11:12:00,
2013-04-05 06:22:00,36.0,31.0,30.13,SSE,157,2.0,2.0,80,-99.99,,,-99.99,,2013-04-05 11:22:00,
2013-04-05 06:32:00,36.0,30.0,30.13,SSE,157,0.0,-999.0,79,-99.99,,,-99.99,,2013-04-05 11:32:00,
2013-04-05 06:42:00,37.0,30.0,30.14,ESE,112,0.0,-999.0,78,-99.99,,,-99.99,,2013-04-05 11:42:00,
2013-04-05 06:52:00,36.0,30.0,30.13,SSE,157,1.0,2.0,78,-99.99,,,-99.99,,2013-04-05 11:52:00,
2013-04-05 07:02:00,35.0,30.0,30.14,SSW,202,1.0,2.0,82,-99.99,,,-99.99,,2013-04-05 12:02:00,
2013-04-05 07:12:00,34.0,30.0,30.14,SSW,202,0.0,-999.0,84,-99.99,,,-99.99,,2013-04-05 12:12:00,
2013-04-05 07:22:00,35.0,31.0,30.14,SSW,202,0.0,-999.0,84,-99.99,,,-99.99,,2013-04-05 12:22:00,
2013-04-05 07:32:00,35.0,30.0,30.14,SSW,202,0.0,-999.0,84,-99.99,,,-99.99,,2013-04-05 12:32:00,
2013-04-05 07:42:00,35.0,31.0,30.15,SW,225,0.0,-999.0,85,-99.99,,,-99.99,,2013-04-05 12:42:00,
2013-04-05 07:52:00,35.0,31.0,30.15,South,180,0.0,-999.0,85,-99.99,,,-99.99,,2013-04-05 12:52:00,
2013-04-05 08:02:00,38.0,32.0,30.15,South,180,1.0,2.0,79,-99.99,,,-99.99,,2013-04-05 13:02:00,
2013-04-05 08:12:00,40.0,33.0,30.15,South,180,2.0,3.0,78,-99.99,,,-99.99,,2013-04-05 13:12:00,
2013-04-05 08:22:00,41.0,35.0,30.16,SSW,202,0.0,-999.0,78,-99.99,,,-99.99,,2013-04-05 13:22:00,
2013-04-05 08:32:00,45.0,35.0,30.16,South,180,0.0,-999.0,69,-99.99,,,-99.99,,2013-04-05 13:32:00,
2013-04-05 08:42:00,48.0,34.0,30.17,NE,45,0.0,-999.0,59,-99.99,,,-99.99,,2013-04-05 13:42:00,
2013-04-05 08:52:00,48.0,35.0,30.16,NNE,22,2.0,4.0,61,-99.99,,,-99.99,,2013-04-05 13:52:00,
2013-04-05 09:03:00,47.0,36.0,30.17,NNE,22,4.0,6.0,65,-99.99,,,-99.99,,2013-04-05 14:03:00,
2013-04-05 09:12:00,47.0,34.0,30.18,NE,45,3.0,6.0,59,-99.99,,,-99.99,,2013-04-05 14:12:00,
2013-04-05 09:22:00,48.0,33.0,30.18,North,0,4.0,7.0,54,-99.99,,,-99.99,,2013-04-05 14:22:00,
2013-04-05 09:36:00,48.0,33.0,30.18,North,0,4.0,7.0,54,-99.99,,,-99.99,,2013-04-05 14:36:00,
2013-04-05 09:42:00,49.0,34.0,30.18,ESE,112,4.0,7.0,56,-99.99,,,-99.99,,2013-04-05 14:42:00,
2013-04-05 09:52:00,50.0,35.0,30.18,ESE,112,5.0,8.0,57,-99.99,,,-99.99,,2013-04-05 14:52:00,
2013-04-05 10:02:00,50.0,36.0,30.18,SE,135,5.0,7.0,57,-99.99,,,-99.99,,2013-04-05 15:02:00,
2013-04-05 10:12:00,51.0,35.0,30.18,SE,135,4.0,7.0,55,-99.99,,,-99.99,,2013-04-05 15:12:00,
2013-04-05 10:23:00,52.0,36.0,30.18,ESE,112,4.0,7.0,55,-99.99,,,-99.99,,2013-04-05 15:23:00,
2013-04-05 10:33:00,52.0,36.0,30.18,ESE,112,4.0,7.0,55,-99.99,,,-99.99,,2013-04-05 15:33:00,
2013-04-05 10:42:00,55.0,36.0,30.18,North,0,3.0,7.0,50,-99.99,,,-99.99,,2013-04-05 15:42:00,
2013-04-05 10:53:00,55.0,34.0,30.18,North,0,4.0,7.0,45,-99.99,,,-99.99,,2013-04-05 15:53:00,
2013-04-05 11:02:00,56.0,36.0,30.18,ENE,67,3.0,6.0,46,-99.99,,,-99.99,,2013-04-05 16:02:00,
2013-04-05 11:13:00,56.0,35.0,30.18,ESE,112,4.0,7.0,43,-99.99,,,-99.99,,2013-04-05 16:13:00,
2013-04-05 11:23:00,57.0,34.0,30.18,SSE,157,5.0,9.0,43,-99.99,,,-99.99,,2013-04-05 16:23:00,
2013-04-05 11:33:00,58.0,34.0,30.18,SE,135,4.0,7.0,41,-99.99,,,-99.99,,2013-04-05 16:33:00,
2013-04-05 11:42:00,59.0,38.0,30.18,ESE,112,4.0,7.0,45,-99.99,,,-99.99,,2013-04-05 16:42:00,
2013-04-05 11:52:00,59.0,37.0,30.17,North,0,3.0,6.0,44,-99.99,,,-99.99,,2013-04-05 16:52:00,
2013-04-05 12:03:00,60.0,36.0,30.17,SE,135,4.0,7.0,40,-99.99,,,-99.99,,2013-04-05 17:03:00,
2013-04-05 12:12:00,62.0,34.0,30.17,SSE,157,2.0,7.0,35,-99.99,,,-99.99,,2013-04-05 17:12:00,
2013-04-05 12:23:00,61.0,35.0,30.17,SE,135,3.0,6.0,37,-99.99,,,-99.99,,2013-04-05 17:23:00,
2013-04-05 12:32:00,61.0,35.0,30.17,SE,135,3.0,6.0,37,-99.99,,,-99.99,,2013-04-05 17:32:00,
2013-04-05 12:45:00,63.0,37.0,30.16,ESE,112,4.0,7.0,38,-99.99,,,-99.99,,2013-04-05 17:45:00,
2013-04-05 12:52:00,63.0,38.0,30.15,SSW,202,6.0,8.0,40,-99.99,,,-99.99,,2013-04-05 17:52:00,
2013-04-05 13:02:00,63.0,38.0,30.15,SW,225,3.0,7.0,40,-99.99,,,-99.99,,2013-04-05 18:02:00,
2013-04-05 13:12:00,63.0,38.0,30.14,SW,225,4.0,8.0,39,-99.99,,,-99.99,,2013-04-05 18:12:00,
2013-04-05 13:22:00,63.0,38.0,30.13,South,180,5.0,7.0,40,-99.99,,,-99.99,,2013-04-05 18:22:00,
2013-04-05 13:33:00,63.0,39.0,30.13,WSW,247,8.0,12.0,41,-99.99,,,-99.99,,2013-04-05 18:33:00,
2013-04-05 13:42:00,64.0,40.0,30.12,South,180,6.0,10.0,41,-99.99,,,-99.99,,2013-04-05 18:42:00,
2013-04-05 13:52:00,64.0,39.0,30.11,South,180,8.0,13.0,39,-99.99,,,-99.99,,2013-04-05 18:52:00,
2013-04-05 14:02:00,64.0,37.0,30.11,SW,225,7.0,13.0,37,-99.99,,,-99.99,,2013-04-05 19:02:00,
2013-04-05 14:13:00,65.0,41.0,30.11,SW,225,7.0,12.0,41,-99.99,,,-99.99,,2013-04-05 19:13:00,
2013-04-05 14:22:00,66.0,37.0,30.10,South,180,7.0,15.0,35,-99.99,,,-99.99,,2013-04-05 19:22:00,
2013-04-05 14:33:00,66.0,39.0,30.10,SW,225,9.0,16.0,37,-99.99,,,-99.99,,2013-04-05 19:33:00,
2013-04-05 14:42:00,66.0,40.0,30.10,WSW,247,7.0,11.0,38,-99.99,,,-99.99,,2013-04-05 19:42:00,
2013-04-05 14:52:00,66.0,38.0,30.09,SW,225,8.0,12.0,35,-99.99,,,-99.99,,2013-04-05 19:52:00,
2013-04-05 15:02:00,66.0,37.0,30.08,SSE,157,7.0,14.0,34,-99.99,,,-99.99,,2013-04-05 20:02:00,
2013-04-05 15:11:00,67.0,38.0,30.08,SSW,202,9.0,13.0,35,-99.99,,,-99.99,,2013-04-05 20:11:00,
2013-04-05 15:22:00,66.0,37.0,30.07,SSW,202,8.0,15.0,34,-99.99,,,-99.99,,2013-04-05 20:22:00,
2013-04-05 15:32:00,66.0,38.0,30.07,SSW,202,9.0,13.0,35,-99.99,,,-99.99,,2013-04-05 20:32:00,
2013-04-05 15:42:00,66.0,38.0,30.06,South,180,6.0,11.0,36,-99.99,,,-99.99,,2013-04-05 20:42:00,
2013-04-05 15:52:00,67.0,39.0,30.05,SW,225,7.0,11.0,36,-99.99,,,-99.99,,2013-04-05 20:52:00,
2013-04-05 16:02:00,67.0,40.0,30.05,SSE,157,8.0,11.0,37,-99.99,,,-99.99,,2013-04-05 21:02:00,
2013-04-05 16:12:00,67.0,41.0,30.04,SSW,202,8.0,12.0,38,-99.99,,,-99.99,,2013-04-05 21:12:00,
2013-04-05 16:23:00,67.0,42.0,30.04,SW,225,8.0,13.0,40,-99.99,,,-99.99,,2013-04-05 21:23:00,
2013-04-05 16:33:00,67.0,40.0,30.03,SSW,202,8.0,13.0,37,-99.99,,,-99.99,,2013-04-05 21:33:00,
2013-04-05 16:42:00,68.0,39.0,30.02,SSW,202,8.0,12.0,34,-99.99,,,-99.99,,2013-04-05 21:42:00,
2013-04-05 16:53:00,68.0,41.0,30.02,SSW,202,8.0,11.0,37,-99.99,,,-99.99,,2013-04-05 21:53:00,
2013-04-05 17:03:00,68.0,41.0,30.02,SSW,202,8.0,14.0,37,-99.99,,,-99.99,,2013-04-05 22:03:00,
2013-04-05 17:13:00,68.0,39.0,30.01,South,180,6.0,13.0,34,-99.99,,,-99.99,,2013-04-05 22:13:00,
2013-04-05 17:23:00,68.0,40.0,30.02,SSW,202,7.0,11.0,36,-99.99,,,-99.99,,2013-04-05 22:23:00,
2013-04-05 17:33:00,67.0,38.0,30.01,SSW,202,10.0,13.0,34,-99.99,,,-99.99,,2013-04-05 22:33:00,
2013-04-05 17:42:00,68.0,40.0,30.01,SSW,202,8.0,12.0,36,-99.99,,,-99.99,,2013-04-05 22:42:00,
2013-04-05 17:52:00,68.0,38.0,30.01,SSE,157,7.0,10.0,34,-99.99,,,-99.99,,2013-04-05 22:52:00,
2013-04-05 18:02:00,68.0,39.0,30.01,SSW,202,9.0,14.0,35,-99.99,,,-99.99,,2013-04-05 23:02:00,
2013-04-05 18:12:00,68.0,38.0,30.00,SSW,202,6.0,11.0,33,-99.99,,,-99.99,,2013-04-05 23:12:00,
2013-04-05 18:22:00,67.0,41.0,30.00,SSW,202,8.0,12.0,38,-99.99,,,-99.99,,2013-04-05 23:22:00,
2013-04-05 18:32:00,68.0,38.0,29.99,SSE,157,7.0,9.0,34,-99.99,,,-99.99,,2013-04-05 23:32:00,
2013-04-05 18:42:00,67.0,38.0,30.00,South,180,7.0,11.0,35,-99.99,,,-99.99,,2013-04-05 23:42:00,
2013-04-05 18:52:00,66.0,38.0,29.99,South,180,7.0,10.0,36,-99.99,,,-99.99,,2013-04-05 23:52:00,
2013-04-05 19:02:00,65.0,39.0,29.99,South,180,7.0,11.0,38,-99.99,,,-99.99,,2013-04-06 00:02:00,
2013-04-05 19:12:00,64.0,40.0,29.99,South,180,6.0,8.0,41,-99.99,,,-99.99,,2013-04-06 00:12:00,
2013-04-05 19:22:00,64.0,40.0,29.99,South,180,7.0,9.0,42,-99.99,,,-99.99,,2013-04-06 00:22:00,
2013-04-05 19:32:00,63.0,41.0,29.99,South,180,6.0,9.0,45,-99.99,,,-99.99,,2013-04-06 00:32:00,
2013-04-05 19:42:00,62.0,41.0,29.98,SSE,157,5.0,9.0,46,-99.99,,,-99.99,,2013-04-06 00:42:00,
2013-04-05 19:52:00,61.0,41.0,29.98,SSE,157,4.0,7.0,46,-99.99,,,-99.99,,2013-04-06 00:52:00,
2013-04-05 20:02:00,61.0,41.0,29.98,South,180,4.0,5.0,48,-99.99,,,-99.99,,2013-04-06 01:02:00,
2013-04-05 20:12:00,61.0,41.0,29.98,South,180,5.0,7.0,49,-99.99,,,-99.99,,2013-04-06 01:12:00,
2013-04-05 20:22:00,60.0,41.0,29.98,SSE,157,5.0,7.0,50,-99.99,,,-99.99,,2013-04-06 01:22:00,
2013-04-05 20:32:00,59.0,41.0,29.98,South,180,5.0,7.0,52,-99.99,,,-99.99,,2013-04-06 01:32:00,
2013-04-05 20:42:00,59.0,41.0,29.98,SSE,157,5.0,7.0,52,-99.99,,,-99.99,,2013-04-06 01:42:00,
2013-04-05 20:52:00,59.0,42.0,29.97,SSE,157,5.0,7.0,52,-99.99,,,-99.99,,2013-04-06 01:52:00,
2013-04-05 21:02:00,59.0,42.0,29.97,SSE,157,5.0,7.0,53,-99.99,,,-99.99,,2013-04-06 02:02:00,
2013-04-05 21:12:00,60.0,41.0,29.97,SSE,157,4.0,8.0,50,-99.99,,,-99.99,,2013-04-06 02:12:00,
2013-04-05 21:22:00,60.0,41.0,29.97,SSE,157,5.0,7.0,49,-99.99,,,-99.99,,2013-04-06 02:22:00,
2013-04-05 21:32:00,60.0,41.0,29.97,SSE,157,6.0,9.0,50,-99.99,,,-99.99,,2013-04-06 02:32:00,
2013-04-05 21:42:00,59.0,41.0,29.97,SSE,157,6.0,9.0,51,-99.99,,,-99.99,,2013-04-06 02:42:00,
2013-04-05 21:52:00,60.0,41.0,29.97,SSE,157,6.0,9.0,50,-99.99,,,-99.99,,2013-04-06 02:52:00,
2013-04-05 22:02:00,59.0,41.0,29.97,SSE,157,6.0,9.0,50,-99.99,,,-99.99,,2013-04-06 03:02:00,
2013-04-05 22:12:00,59.0,41.0,29.97,South,180,6.0,9.0,50,-99.99,,,-99.99,,2013-04-06 03:12:00,
2013-04-05 22:22:00,59.0,41.0,29.97,SSE,157,6.0,9.0,52,-99.99,,,-99.99,,2013-04-06 03:22:00,
2013-04-05 22:33:00,59.0,41.0,29.97,SSE,157,5.0,7.0,52,-99.99,,,-99.99,,2013-04-06 03:33:00,
2013-04-05 22:42:00,58.0,40.0,29.96,SSE,157,6.0,9.0,52,-99.99,,,-99.99,,2013-04-06 03:42:00,
2013-04-05 22:53:00,58.0,40.0,29.96,SSE,157,7.0,9.0,50,-99.99,,,-99.99,,2013-04-06 03:53:00,
2013-04-05 23:03:00,58.0,40.0,29.95,SSE,157,7.0,11.0,51,-99.99,,,-99.99,,2013-04-06 04:03:00,
2013-04-05 23:13:00,58.0,40.0,29.95,SSE,157,8.0,12.0,51,-99.99,,,-99.99,,2013-04-06 04:13:00,
2013-04-05 23:23:00,58.0,40.0,29.94,SSE,157,8.0,13.0,51,-99.99,,,-99.99,,2013-04-06 04:23:00,
2013-04-05 23:32:00,58.0,39.0,29.94,SSE,157,8.0,12.0,50,-99.99,,,-99.99,,2013-04-06 04:32:00,
2013-04-05 23:42:00,58.0,40.0,29.94,SE,135,9.0,13.0,51,-99.99,,,-99.99,,2013-04-06 04:42:00,
2013-04-05 23:52:00,58.0,39.0,29.93,SE,135,8.0,12.0,50,-99.99,,,-99.99,,2013-04-06 04:52:00,